Orbital Elements at Epoch 2459000.5 (2020-May-31.0) TDB
Reference: JPL 9 (heliocentric ecliptic J2000)
Element | Value | Uncertainty (1-sigma) | Units |
e | .1643422060360439 | 7.7354e-08 | |
a | 2.57438411610862 | 2.1265e-08 | au |
q | 2.151304151283179 | 2.0581e-07 | au |
i | 13.23641450310305 | 5.8055e-06 | deg |
node | 67.84563937763343 | 3.4701e-05 | deg |
peri | 269.817172410237 | 3.9126e-05 | deg |
M | 139.2668545788667 | 1.9238e-05 | deg |
tp | 2458416.848355161280 (2018-Oct-25.34835516) | 7.7495e-05 | TDB |
period | 1508.719305661861 4.13 | 1.8694e-05 5.118e-08 | d yr |
n | .2386129736982926 | 2.9565e-09 | deg/d |
Q | 2.997464080934062 | 2.476e-08 | au |
|
| | Orbit Determination Parameters
Additional Information
|